TimeCDT,TemperatureF,Dew PointF,Humidity,Sea Level PressureIn,VisibilityMPH,Wind Direction,Wind SpeedMPH,Gust SpeedMPH,PrecipitationIn,Events,Conditions,WindDirDegrees,DateUTC
12:15 AM,34.3,28.2,78,30.30,10.0,North,5.8,-,N/A,,Clear,10,2012-10-28 05:15:00
12:35 AM,34.3,28.0,78,30.29,10.0,North,5.8,-,N/A,,Clear,360,2012-10-28 05:35:00
12:55 AM,34.3,28.9,81,30.29,10.0,NNE,5.8,-,N/A,,Clear,20,2012-10-28 05:55:00
1:15 AM,34.3,28.8,80,30.28,10.0,North,5.8,-,N/A,,Mostly Cloudy,10,2012-10-28 06:15:00
1:35 AM,35.1,28.2,76,30.28,10.0,North,8.1,-,N/A,,Overcast,10,2012-10-28 06:35:00
1:55 AM,35.6,27.5,72,30.28,10.0,North,8.1,-,N/A,,Overcast,360,2012-10-28 06:55:00
2:15 AM,35.4,28.4,76,30.28,10.0,North,6.9,-,N/A,,Overcast,350,2012-10-28 07:15:00
2:35 AM,35.1,28.4,77,30.28,10.0,North,8.1,-,N/A,,Overcast,350,2012-10-28 07:35:00
2:55 AM,35.1,28.4,77,30.28,10.0,North,8.1,-,N/A,,Overcast,360,2012-10-28 07:55:00
3:15 AM,35.6,29.1,77,30.28,10.0,North,6.9,-,N/A,,Overcast,10,2012-10-28 08:15:00
3:35 AM,36.5,29.1,75,30.27,10.0,North,9.2,-,N/A,,Overcast,10,2012-10-28 08:35:00
3:55 AM,37.4,27.3,67,30.27,10.0,North,11.5,-,N/A,,Overcast,10,2012-10-28 08:55:00
4:15 AM,37.6,27.5,67,30.27,10.0,North,9.2,-,N/A,,Overcast,10,2012-10-28 09:15:00
4:35 AM,37.8,28.2,68,30.27,10.0,North,10.4,-,N/A,,Overcast,10,2012-10-28 09:35:00
4:55 AM,37.6,28.9,71,30.28,10.0,North,9.2,-,N/A,,Overcast,10,2012-10-28 09:55:00
5:15 AM,37.9,28.8,70,30.28,10.0,NNE,12.7,-,N/A,,Overcast,20,2012-10-28 10:15:00
5:35 AM,37.9,28.4,69,30.28,10.0,North,9.2,-,N/A,,Overcast,10,2012-10-28 10:35:00
5:55 AM,37.6,28.9,71,30.27,10.0,North,10.4,-,N/A,,Overcast,360,2012-10-28 10:55:00
6:15 AM,37.6,28.9,71,30.27,10.0,North,10.4,-,N/A,,Overcast,360,2012-10-28 11:15:00
6:35 AM,38.3,28.9,69,30.28,10.0,North,12.7,-,N/A,,Overcast,10,2012-10-28 11:35:00
6:55 AM,37.8,29.3,72,30.28,10.0,North,9.2,-,N/A,,Overcast,10,2012-10-28 11:55:00
7:15 AM,37.8,29.5,72,30.28,10.0,North,9.2,-,N/A,,Overcast,10,2012-10-28 12:15:00
7:35 AM,38.1,30.0,73,30.28,10.0,NNE,11.5,-,N/A,,Overcast,20,2012-10-28 12:35:00
7:55 AM,39.4,30.9,72,30.28,10.0,NNE,9.2,-,N/A,,Overcast,20,2012-10-28 12:55:00
8:15 AM,39.7,30.0,68,30.28,10.0,NNE,13.8,17.3,N/A,,Overcast,30,2012-10-28 13:15:00
8:35 AM,40.6,30.2,66,30.29,10.0,NNE,13.8,18.4,N/A,,Overcast,30,2012-10-28 13:35:00
8:55 AM,40.8,30.2,66,30.29,10.0,NNE,13.8,-,N/A,,Overcast,30,2012-10-28 13:55:00
9:15 AM,41.0,30.2,65,30.29,10.0,NNE,16.1,-,N/A,,Overcast,30,2012-10-28 14:15:00
9:35 AM,42.1,30.9,65,30.29,10.0,NNE,15.0,19.6,N/A,,Mostly Cloudy,30,2012-10-28 14:35:00
9:55 AM,44.1,32.2,63,30.29,10.0,NNE,17.3,-,N/A,,Scattered Clouds,30,2012-10-28 14:55:00
10:15 AM,45.5,32.7,61,30.29,10.0,NE,18.4,-,N/A,,Scattered Clouds,40,2012-10-28 15:15:00
10:35 AM,46.4,32.5,59,30.29,10.0,NE,17.3,21.9,N/A,,Scattered Clouds,50,2012-10-28 15:35:00
10:55 AM,46.6,31.8,56,30.29,10.0,NE,18.4,-,N/A,,Clear,50,2012-10-28 15:55:00
11:15 AM,47.7,30.7,52,30.28,10.0,NE,17.3,-,N/A,,Clear,40,2012-10-28 16:15:00
11:35 AM,48.6,30.9,51,30.28,10.0,NE,16.1,21.9,N/A,,Scattered Clouds,50,2012-10-28 16:35:00
11:55 AM,48.4,30.7,51,30.28,10.0,NE,13.8,21.9,N/A,,Clear,40,2012-10-28 16:55:00
12:15 PM,49.8,30.6,48,30.28,10.0,NE,13.8,17.3,N/A,,Mostly Cloudy,50,2012-10-28 17:15:00
12:35 PM,49.3,32.2,52,30.28,10.0,NE,12.7,18.4,N/A,,Overcast,50,2012-10-28 17:35:00
12:55 PM,49.1,32.2,52,30.27,10.0,NNE,15.0,-,N/A,,Overcast,30,2012-10-28 17:55:00
1:15 PM,49.6,31.8,50,30.27,10.0,NE,12.7,-,N/A,,Mostly Cloudy,40,2012-10-28 18:15:00
1:35 PM,48.4,32.2,54,30.26,10.0,NNE,16.1,24.2,N/A,,Mostly Cloudy,30,2012-10-28 18:35:00
1:55 PM,49.6,31.6,50,30.26,10.0,NE,9.2,18.4,N/A,,Scattered Clouds,40,2012-10-28 18:55:00
2:15 PM,48.9,30.9,50,30.25,10.0,NE,17.3,21.9,N/A,,Scattered Clouds,40,2012-10-28 19:15:00
2:35 PM,50.0,32.7,52,30.25,10.0,NNE,16.1,20.7,N/A,,Scattered Clouds,30,2012-10-28 19:35:00
2:55 PM,48.2,30.9,51,30.25,10.0,NNE,9.2,-,N/A,,Mostly Cloudy,20,2012-10-28 19:55:00
3:15 PM,48.2,31.3,52,30.25,10.0,NNE,15.0,20.7,N/A,,Mostly Cloudy,30,2012-10-28 20:15:00
3:35 PM,49.8,31.3,49,30.25,10.0,NNE,15.0,-,N/A,,Mostly Cloudy,30,2012-10-28 20:35:00
3:55 PM,49.1,31.1,50,30.25,10.0,NNE,12.7,-,N/A,,Scattered Clouds,20,2012-10-28 20:55:00
4:15 PM,47.8,29.8,50,30.26,10.0,NNE,10.4,-,N/A,,Scattered Clouds,20,2012-10-28 21:15:00
4:35 PM,48.4,29.8,49,30.25,10.0,NNE,8.1,-,N/A,,Scattered Clouds,20,2012-10-28 21:35:00
4:55 PM,46.9,31.1,54,30.26,10.0,NNE,10.4,-,N/A,,Scattered Clouds,20,2012-10-28 21:55:00
5:15 PM,47.1,31.6,55,30.26,10.0,North,9.2,-,N/A,,Clear,360,2012-10-28 22:15:00
5:35 PM,45.1,31.8,60,30.27,10.0,North,9.2,-,N/A,,Clear,10,2012-10-28 22:35:00
5:55 PM,44.8,31.3,59,30.27,10.0,North,8.1,-,N/A,,Clear,10,2012-10-28 22:55:00
6:15 PM,43.2,31.8,64,30.27,10.0,North,9.2,-,N/A,,Clear,10,2012-10-28 23:15:00
6:35 PM,42.1,31.6,67,30.27,10.0,NNE,10.4,-,N/A,,Clear,20,2012-10-28 23:35:00
6:55 PM,40.3,31.1,70,30.27,10.0,NNE,9.2,-,N/A,,Clear,20,2012-10-28 23:55:00
7:15 PM,40.3,30.9,69,30.27,10.0,North,8.1,-,N/A,,Clear,10,2012-10-29 00:15:00
7:35 PM,38.5,30.6,73,30.27,10.0,NNE,6.9,-,N/A,,Clear,30,2012-10-29 00:35:00
7:55 PM,38.5,30.6,73,30.27,10.0,NNE,5.8,-,N/A,,Clear,30,2012-10-29 00:55:00
8:15 PM,38.3,30.2,73,30.27,10.0,NNE,5.8,-,N/A,,Clear,30,2012-10-29 01:15:00
8:35 PM,37.0,30.0,76,30.28,10.0,NNE,5.8,-,N/A,,Clear,30,2012-10-29 01:35:00
8:55 PM,37.4,30.2,75,30.28,10.0,NNE,5.8,-,N/A,,Clear,20,2012-10-29 01:55:00
9:15 PM,35.6,29.3,78,30.29,10.0,North,4.6,-,N/A,,Clear,10,2012-10-29 02:15:00
9:35 PM,35.6,30.2,81,30.29,10.0,NNE,5.8,-,N/A,,Clear,20,2012-10-29 02:35:00
9:55 PM,35.1,29.3,80,30.30,10.0,NNE,6.9,-,N/A,,Clear,20,2012-10-29 02:55:00
10:15 PM,34.9,28.9,79,30.30,10.0,North,6.9,-,N/A,,Clear,360,2012-10-29 03:15:00
10:35 PM,34.7,28.9,79,30.30,10.0,North,6.9,-,N/A,,Clear,360,2012-10-29 03:35:00
10:55 PM,34.3,28.8,80,30.30,10.0,North,8.1,-,N/A,,Clear,360,2012-10-29 03:55:00
11:15 PM,34.3,29.1,81,30.30,10.0,North,8.1,-,N/A,,Clear,10,2012-10-29 04:15:00
11:35 PM,33.8,28.4,81,30.30,10.0,North,9.2,-,N/A,,Clear,350,2012-10-29 04:35:00
11:55 PM,34.5,29.1,81,30.30,10.0,North,8.1,-,N/A,,Clear,350,2012-10-29 04:55:00